KC5MUJ-1 Weather Reports


time (UTC)temp
C
wind
direction
speed
KPH
gust
KPH
rain 1hr
cm
rain 24hr
cm
rain mn
cm
humidity
%
barometer
mb
20260506030004 25 195 0.0 0.0 0.00 0.00 0.00 88 1008.4
20260506025500 25 116 0.0 1.6 0.00 0.00 0.00 88 1008.3
20260506025002 25 132 0.0 1.6 0.00 0.00 0.00 87 1008.3
20260506024500 25 133 0.0 1.6 0.00 0.00 0.00 87 1008.2
20260506024004 25 107 0.0 1.6 0.00 0.00 0.00 87 1008.1
20260506023500 25 107 0.0 1.6 0.00 0.00 0.00 86 1007.9
20260506023001 26 101 0.0 1.6 0.00 0.00 0.00 85 1007.8
20260506022501 26 102 0.0 1.6 0.00 0.00 0.00 85 1007.8
20260506022001 26 104 0.0 1.6 0.00 0.00 0.00 84 1007.7
20260506021502 26 113 0.0 1.6 0.00 0.00 0.00 84 1007.6
20260506021001 26 96 0.0 1.6 0.00 0.00 0.00 83 1007.6
20260506020501 26 98 0.0 1.6 0.00 0.00 0.00 83 1007.5
20260506020003 26 108 0.0 0.0 0.00 0.00 0.00 83 1007.5
20260506015500 26 108 0.0 0.0 0.00 0.00 0.00 82 1007.3
20260506015003 26 108 0.0 1.6 0.00 0.00 0.00 82 1007.3
20260506014504 26 106 0.0 1.6 0.00 0.00 0.00 82 1007.2
20260506014002 26 106 0.0 1.6 0.00 0.00 0.00 81 1007.3
20260506013001 27 107 0.0 0.0 0.00 0.00 0.00 81 1007.4
20260506012504 27 96 0.0 1.6 0.00 0.00 0.00 80 1007.2
20260506012000 27 96 0.0 1.6 0.00 0.00 0.00 80 1007.2
20260506011001 27 186 0.0 0.0 0.00 0.00 0.00 79 1007.3
20260506010501 27 186 0.0 0.0 0.00 0.00 0.00 78 1007.3
20260506010002 27 186 0.0 4.8 0.00 0.00 0.00 78 1007.3
20260506005502 27 188 0.0 4.8 0.00 0.00 0.00 78 1007.4
20260506005001 27 203 0.0 0.0 0.00 0.00 0.00 77 1007.3
20260506004001 28 205 0.0 0.0 0.00 0.00 0.00 77 1007.3
20260506003500 28 205 0.0 0.0 0.00 0.00 0.00 77 1007.2
20260506002501 28 205 0.0 0.0 0.00 0.00 0.00 77 1007.1
20260506002003 28 206 0.0 0.0 0.00 0.00 0.00 76 1007.1
20260506001001 28 192 0.0 0.0 0.00 0.00 0.00 76 1007.0
20260506000503 28 200 0.0 3.2 0.00 0.00 0.00 75 1007.0
20260505235500 28 178 0.0 1.6 0.00 0.00 0.00 76 1007.0
20260505235003 28 199 0.0 0.0 0.00 0.00 0.00 75 1007.1
20260505234500 28 186 0.0 3.2 0.00 0.00 0.00 75 1006.8
20260505234000 28 202 0.0 3.2 0.00 0.00 0.00 74 1006.8
20260505233503 28 182 0.0 0.0 0.00 0.00 0.00 74 1006.7
20260505233000 28 207 0.0 0.0 0.00 0.00 0.00 73 1006.8
20260505232502 28 161 0.0 0.0 0.00 0.00 0.00 73 1006.8
20260505232000 28 186 0.0 0.0 0.00 0.00 0.00 73 1006.9
20260505230500 28 178 0.0 6.4 0.00 0.00 0.00 73 1006.7
20260505230001 29 112 0.0 3.2 0.00 0.00 0.00 73 1006.7
20260505225503 29 99 0.0 3.2 0.00 0.00 0.00 72 1006.6
20260505225001 29 167 0.0 3.2 0.00 0.00 0.00 72 1006.6
20260505224501 29 108 0.0 0.0 0.00 0.00 0.00 72 1006.6
20260505224002 29 113 0.0 3.2 0.00 0.00 0.00 71 1006.5
20260505223500 29 115 0.0 4.8 0.00 0.00 0.00 71 1006.6
20260505223001 29 127 0.0 4.8 0.00 0.00 0.00 71 1006.5
20260505222501 30 155 0.0 6.4 0.00 0.00 0.00 71 1006.6
20260505221501 30 189 0.0 1.6 0.00 0.00 0.00 71 1006.6
20260505221002 30 188 0.0 4.8 0.00 0.00 0.00 70 1006.7
20260505220501 30 215 0.0 4.8 0.00 0.00 0.00 70 1006.6
20260505220002 30 128 0.0 6.4 0.00 0.00 0.00 69 1006.7
20260505215501 30 182 0.0 6.4 0.00 0.00 0.00 68 1006.8
20260505215000 30 111 0.0 6.4 0.00 0.00 0.00 68 1007.0
20260505214500 31 182 0.0 0.0 0.00 0.00 0.00 67 1007.2
20260505213503 31 172 0.0 0.0 0.00 0.00 0.00 65 1007.2
20260505213001 31 177 0.0 0.0 0.00 0.00 0.00 66 1007.3
20260505211500 31 207 0.0 17.7 0.00 0.00 0.00 66 1007.4
20260505211003 31 202 0.0 17.7 0.00 0.00 0.00 66 1007.3
20260505210501 31 209 0.0 1.6 0.00 0.00 0.00 66 1007.4
20260505210000 31 202 0.0 0.0 0.00 0.00 0.00 67 1007.3
20260505205500 31 196 0.0 0.0 0.00 0.00 0.00 68 1007.4
20260505204503 30 200 0.0 6.4 0.00 0.00 0.00 70 1007.7
20260505204002 30 140 0.0 4.8 0.00 0.00 0.00 71 1007.7
20260505203501 30 217 0.0 3.2 0.00 0.00 0.00 70 1007.8
20260505203003 30 189 0.0 3.2 0.00 0.00 0.00 71 1008.0
20260505202502 30 134 0.0 0.0 0.00 0.00 0.00 71 1008.0
20260505202006 29 190 0.0 16.1 0.00 0.00 0.00 72 1008.3
20260505201000 29 169 0.0 4.8 0.00 0.00 0.00 72 1008.2
20260505200003 28 211 0.0 1.6 0.00 0.00 0.00 73 1008.3
20260505195502 28 153 0.0 1.6 0.00 0.00 0.00 73 1008.4
20260505195002 28 182 0.0 1.6 0.00 0.00 0.00 73 1008.4
20260505194459 28 149 0.0 1.6 0.00 0.00 0.00 73 1008.5
20260505194001 28 205 0.0 1.6 0.00 0.00 0.00 73 1008.6
20260505193000 28 202 0.0 6.4 0.00 0.00 0.00 73 1008.7
20260505192459 28 133 0.0 6.4 0.00 0.00 0.00 74 1008.6
20260505192002 28 186 0.0 1.6 0.00 0.00 0.00 74 1008.5
20260505191503 28 204 0.0 3.2 0.00 0.00 0.00 73 1008.5
20260505191003 28 186 0.0 3.2 0.00 0.00 0.00 73 1008.7
20260505190503 28 183 0.0 4.8 0.00 0.00 0.00 74 1008.8
20260505185500 28 174 0.0 4.8 0.00 0.00 0.00 76 1008.8
20260505184459 28 207 0.0 0.0 0.00 0.00 0.00 76 1008.9
20260505184003 27 190 0.0 1.6 0.00 0.00 0.00 76 1009.1
20260505183459 27 179 0.0 1.6 0.00 0.00 0.00 77 1009.1
20260505183003 27 182 0.0 0.0 0.00 0.00 0.00 77 1009.2
20260505182459 27 200 0.0 0.0 0.00 0.00 0.00 77 1009.2
20260505181959 27 194 0.0 0.0 0.00 0.00 0.00 78 1009.2
20260505181502 27 196 0.0 0.0 0.00 0.00 0.00 78 1009.3
20260505180959 26 182 0.0 0.0 0.00 0.00 0.00 81 1009.3
20260505175459 26 202 0.0 0.0 0.00 0.00 0.00 81 1009.5
20260505174959 25 180 0.0 0.0 0.00 0.00 0.00 82 1009.6
20260505174501 25 202 0.0 0.0 0.00 0.00 0.00 83 1009.7
20260505173959 25 219 0.0 0.0 0.00 0.00 0.00 83 1009.7
20260505173501 25 198 0.0 0.0 0.00 0.00 0.00 83 1009.7
20260505173000 25 190 0.0 0.0 0.00 0.00 0.00 83 1009.8
20260505172501 25 178 0.0 0.0 0.00 0.00 0.00 84 1009.8
20260505172001 25 199 0.0 0.0 0.00 0.00 0.00 85 1009.7
20260505171459 24 224 0.0 0.0 0.00 0.00 0.00 85 1009.8
20260505171001 24 205 0.0 0.0 0.00 0.00 0.00 85 1009.9
20260505170503 24 202 0.0 0.0 0.00 0.00 0.00 85 1009.9
20260505165502 24 202 0.0 0.0 0.00 0.00 0.00 86 1009.8
20260505165000 23 194 0.0 0.0 0.00 0.00 0.00 87 1009.8
20260505164003 23 191 0.0 0.0 0.00 0.00 0.00 87 1009.8
20260505163500 23 165 0.0 0.0 0.00 0.00 0.00 87 1009.8
20260505162959 23 215 0.0 9.7 0.00 0.00 0.00 88 1009.8
20260505162459 23 228 0.0 9.7 0.00 0.00 0.00 88 1009.8
20260505161500 23 216 0.0 0.0 0.00 0.00 0.00 89 1010.0
20260505160503 22 229 0.0 0.0 0.00 0.00 0.00 90 1009.9
20260505153000 22 178 0.0 0.0 0.00 0.00 0.00 91 1010.1
20260505152502 22 173 0.0 0.0 0.00 0.00 0.00 91 1010.0
20260505152000 22 212 0.0 0.0 0.00 0.00 0.00 91 1010.0
20260505151500 22 194 0.0 0.0 0.00 0.00 0.00 91 1009.9
20260505151001 22 198 0.0 0.0 0.00 0.00 0.00 91 1009.8
20260505150502 22 186 0.0 6.4 0.00 0.00 0.00 92 1009.6
20260505140502 22 178 0.0 0.0 0.00 0.00 0.00 92 1009.4
20260505124500 21 200 0.0 0.0 0.00 0.00 0.00 93 1008.8
20260505124003 21 207 0.0 0.0 0.00 0.00 0.00 93 1008.6
20260505123500 21 205 0.0 16.1 0.00 0.00 0.00 93 1008.5
20260505123001 21 180 0.0 16.1 0.00 0.00 0.00 93 1008.6
20260505122459 21 183 0.0 0.0 0.00 0.00 0.00 93 1008.5
20260505121959 21 195 0.0 0.0 0.00 0.00 0.00 93 1008.5
20260505121459 21 220 0.0 11.3 0.00 0.00 0.00 93 1008.4
20260505120459 21 201 0.0 0.0 0.00 0.00 0.00 93 1008.3
20260505120000 21 166 0.0 0.0 0.00 0.00 0.00 92 1008.2
20260505115504 21 174 1.6 9.7 0.00 0.00 0.00 92 1008.2
20260505114959 21 210 1.6 19.3 0.00 0.00 0.00 92 1008.2
20260505114502 21 171 0.0 20.9 0.00 0.00 0.00 92 1008.3
20260505113459 21 181 0.0 0.0 0.00 0.00 0.00 92 1008.2
20260505113001 21 182 1.6 0.0 0.00 0.00 0.00 92 1008.3
20260505112500 21 184 1.6 17.7 0.00 0.00 0.00 92 1008.2
20260505112001 21 184 0.0 1.6 0.00 0.00 0.00 92 1008.2
20260505111502 21 206 0.0 0.0 0.00 0.00 0.00 92 1008.3
20260505110459 21 157 0.0 0.0 0.00 0.00 0.00 92 1008.4
20260505102000 21 192 0.0 0.0 0.00 0.00 0.00 91 1008.3
20260505101501 21 167 0.0 3.2 0.00 0.00 0.00 91 1008.4
20260505100959 21 193 0.0 3.2 0.00 0.00 0.00 91 1008.7
20260505100503 21 202 0.0 3.2 0.00 0.00 0.00 91 1008.5
20260505095501 21 170 0.0 0.0 0.00 0.00 0.00 91 1008.4
20260505095004 21 204 0.0 0.0 0.00 0.00 0.00 91 1008.3
20260505094002 21 182 0.0 17.7 0.00 0.00 0.00 90 1008.5
20260505093502 21 185 0.0 17.7 0.00 0.00 0.00 90 1008.5
20260505093000 21 200 0.0 1.6 0.00 0.00 0.00 90 1008.5
20260505092501 21 150 0.0 1.6 0.00 0.00 0.00 90 1008.7
20260505092002 21 204 0.0 0.0 0.00 0.00 0.00 90 1008.5
20260505091503 21 175 0.0 1.6 0.00 0.00 0.00 90 1008.4
20260505091001 21 193 0.0 0.0 0.00 0.00 0.00 90 1008.6
20260505090459 21 200 0.0 12.9 0.00 0.00 0.00 90 1008.6
20260505090003 21 183 0.0 12.9 0.00 0.00 0.00 89 1008.6
20260505084500 21 169 0.0 0.0 0.00 0.00 0.00 89 1008.5
20260505084003 21 164 0.0 16.1 0.00 0.00 0.00 89 1008.5
20260505083500 21 180 0.0 16.1 0.00 0.00 0.00 89 1008.6
20260505083000 21 189 0.0 4.8 0.00 0.00 0.00 90 1008.6
20260505082502 21 184 0.0 0.0 0.00 0.00 0.00 90 1009.0
20260505082004 21 190 0.0 3.2 0.00 0.00 0.00 90 1009.1
20260505081502 21 183 0.0 3.2 0.00 0.00 0.00 90 1009.0
20260505080503 21 136 0.0 16.1 0.00 0.00 0.00 90 1009.1
20260505075502 21 142 0.0 8.0 0.00 0.00 0.00 90 1009.1
20260505075002 21 188 0.0 0.0 0.00 0.00 0.00 90 1009.3
20260505074504 21 205 0.0 3.2 0.00 0.00 0.00 90 1009.4
20260505074000 21 191 0.0 3.2 0.00 0.00 0.00 90 1009.4
20260505073501 21 157 0.0 3.2 0.00 0.00 0.00 90 1009.4
20260505073002 21 165 0.0 0.0 0.00 0.00 0.00 90 1009.5
20260505072502 21 166 0.0 0.0 0.00 0.00 0.00 90 1009.6
20260505072002 21 196 0.0 6.4 0.00 0.00 0.00 90 1009.5
20260505071500 21 192 0.0 6.4 0.00 0.00 0.00 89 1009.6
20260505070500 21 191 0.0 16.1 0.00 0.00 0.00 89 1009.7
20260505065502 21 229 0.0 1.6 0.00 0.00 0.00 89 1009.9
20260505065001 21 125 0.0 1.6 0.00 0.00 0.00 89 1010.0
20260505064502 21 173 0.0 1.6 0.00 0.00 0.00 89 1010.0
20260505064000 21 167 0.0 6.4 0.00 0.00 0.00 89 1010.1
20260505063501 21 187 0.0 6.4 0.00 0.00 0.00 89 1010.1
20260505063002 21 200 0.0 0.0 0.00 0.00 0.00 89 1010.1
20260505062001 21 200 0.0 19.3 0.00 0.00 0.00 89 1010.4
20260505061500 21 192 0.0 8.0 0.00 0.00 0.00 89 1010.4
20260505061003 21 161 0.0 8.0 0.00 0.00 0.00 89 1010.4
20260505060502 21 141 0.0 0.0 0.00 0.00 0.00 89 1010.4
20260505060001 21 192 0.0 0.0 0.00 0.00 0.00 88 1010.4
20260505055501 21 170 0.0 0.0 0.00 0.00 0.00 88 1010.4
20260505055002 21 192 0.0 3.2 0.00 0.00 0.00 88 1010.4
20260505054501 21 190 0.0 3.2 0.00 0.00 0.00 88 1010.4
20260505054000 21 163 0.0 3.2 0.00 0.00 0.00 88 1010.4
20260505053001 21 202 0.0 0.0 0.00 0.00 0.00 88 1010.3
20260505052503 21 202 0.0 6.4 0.00 0.00 0.00 88 1010.3
20260505052004 21 156 0.0 6.4 0.00 0.00 0.00 88 1010.1
20260505051504 21 178 0.0 1.6 0.00 0.00 0.00 88 1010.3
20260505051002 21 201 0.0 0.0 0.00 0.00 0.00 88 1010.3
20260505050501 21 140 0.0 0.0 0.00 0.00 0.00 88 1010.2
20260505041002 22 146 0.0 14.5 0.00 0.00 0.00 85 1010.1
20260505040502 22 184 0.0 1.6 0.00 0.00 0.00 85 1010.3
20260505040001 22 171 0.0 6.4 0.00 0.00 0.00 85 1010.4
20260505035503 22 138 0.0 4.8 0.00 0.00 0.00 84 1010.5
20260505035001 22 202 0.0 0.0 0.00 0.00 0.00 84 1010.4
20260505034501 22 155 0.0 1.6 0.00 0.00 0.00 84 1010.5
20260505034001 22 153 0.0 4.8 0.00 0.00 0.00 84 1010.3
20260505033501 22 193 0.0 4.8 0.00 0.00 0.00 84 1010.5
20260505033000 23 207 0.0 0.0 0.00 0.00 0.00 83 1010.4
20260505032501 23 188 0.0 6.4 0.00 0.00 0.00 83 1010.3
20260505032000 23 171 0.0 6.4 0.00 0.00 0.00 83 1010.2
20260505031501 23 158 0.0 6.4 0.00 0.00 0.00 82 1010.1
20260505031001 23 135 0.0 4.8 0.00 0.00 0.00 82 1010.2
20260505030502 23 142 0.0 4.8 0.00 0.00 0.00 82 1010.1